Theta_e
317 317 316 316 317 317 317 317 317 317 317 317 317 316 315 314 315 317 317 319 321 320 320 323 324 325 327 327 330 335 336 337 337 338 338 337 338 339 339 338 337 337 336 335 334 334 335 336 334 332 332 331 330 331 332 333 335 336 335 335 335 334 334 334 333 334 332 331 333 336 337 336 336 334 332 331 332 333 333 334 334 333 332 332 332 332
317 316 317 317 317 317 317 317 317 317 317 317 317 316 315 315 315 317 319 319 321 321 320 322 322 323 326 326 329 334 334 334 336 337 337 337 337 339 339 339 338 337 336 335 335 335 336 336 334 333 334 333 333 332 331 332 335 336 335 335 335 335 335 335 335 335 334 333 334 336 337 337 337 336 335 335 334 333 333 332 331 331 331 331 331 331
317 317 317 317 317 317 316 316 316 317 317 317 317 316 314 316 316 317 320 322 321 320 320 322 322 321 324 326 329 333 332 333 334 336 337 338 338 339 338 338 338 338 337 336 335 335 336 335 333 332 333 334 334 331 329 331 334 335 335 335 336 336 336 336 336 336 334 334 333 333 336 337 337 338 337 337 336 333 332 330 329 329 330 330 331 332
316 316 318 318 317 317 316 316 317 317 317 317 317 315 314 316 316 314 318 322 322 321 321 322 321 320 323 326 328 331 332 333 335 336 338 338 339 339 338 337 338 338 338 337 336 335 336 335 333 330 330 331 331 329 328 331 333 334 334 334 335 336 336 336 336 334 334 334 333 332 333 333 336 337 336 335 335 333 331 330 328 328 328 328 331 333
316 317 318 317 317 317 317 317 317 317 317 317 317 315 315 316 316 315 317 319 320 322 323 320 317 317 321 324 324 330 333 334 335 336 338 338 338 338 337 337 338 338 339 338 338 336 336 336 334 331 329 329 329 327 327 330 333 333 332 331 332 333 334 334 334 334 333 333 333 333 332 332 333 334 334 334 335 333 331 330 329 328 328 328 330 331
317 317 317 317 317 317 317 317 318 317 316 316 317 317 316 317 316 317 317 317 316 318 320 317 313 315 320 321 321 327 332 332 334 336 336 336 337 338 337 338 338 338 339 339 339 338 337 337 336 334 332 330 329 328 326 327 329 331 330 330 333 333 333 333 333 334 333 332 333 333 333 333 332 333 334 336 337 335 332 332 332 330 330 330 331 330
318 316 316 317 317 317 317 317 318 317 315 314 316 318 317 317 317 317 317 315 313 314 318 317 314 313 317 319 321 325 326 327 331 334 334 333 334 336 336 336 337 337 338 339 339 338 338 337 336 336 334 332 330 329 327 325 326 327 328 329 332 333 333 332 333 333 333 333 334 334 334 334 334 335 337 337 337 336 334 334 333 331 331 331 330 330
318 317 316 317 317 317 316 317 318 317 315 315 316 317 317 317 317 317 316 315 314 316 317 317 316 314 314 318 322 323 321 321 325 328 329 329 329 332 334 334 336 337 337 338 338 338 338 337 336 336 334 332 331 329 327 326 325 325 326 326 328 332 334 333 333 334 333 333 334 334 334 334 334 336 337 337 337 336 335 334 332 331 331 331 330 330
319 317 317 317 317 317 317 317 318 317 316 316 317 317 317 317 317 317 316 315 315 315 313 315 317 314 312 317 322 322 319 319 320 322 324 324 324 329 331 330 332 335 336 336 337 338 338 337 336 335 334 333 331 330 328 326 325 325 326 326 326 330 333 334 334 335 334 334 334 334 333 333 334 334 336 337 337 336 335 333 332 331 330 330 330 330
319 318 318 318 317 317 318 318 317 317 317 317 317 317 317 318 317 317 317 316 316 314 312 315 316 314 312 315 318 320 319 319 319 320 321 321 322 326 329 328 330 335 337 335 336 338 337 336 335 334 334 333 332 330 328 326 326 326 326 326 328 329 331 333 334 335 334 334 334 334 333 333 333 334 335 336 336 335 333 331 331 330 330 330 329 329
318 318 318 318 318 319 318 317 316 317 317 317 317 317 317 317 318 318 318 316 315 314 314 315 316 315 313 314 316 319 320 320 320 320 321 322 323 325 328 329 330 333 336 336 335 337 337 335 334 334 334 333 332 330 328 327 327 327 328 328 329 329 328 330 332 333 333 333 333 334 334 333 333 333 333 334 334 333 331 331 331 330 330 330 330 329
318 318 318 319 318 318 318 316 315 316 317 317 317 317 316 316 317 317 317 317 315 314 315 316 317 316 314 315 317 319 320 320 321 321 321 323 323 324 326 328 330 331 334 335 335 337 337 336 335 333 334 334 333 330 329 328 327 329 331 330 329 328 327 329 331 332 333 333 333 333 334 334 334 334 333 332 332 331 331 330 330 330 330 330 330 330
318 318 319 319 318 318 318 317 316 316 316 317 317 316 315 314 316 316 316 316 315 315 317 317 317 316 315 317 319 320 320 320 321 322 323 324 324 324 325 328 330 331 333 334 335 336 337 336 335 334 334 334 333 330 330 329 330 333 333 332 332 331 329 329 329 331 332 333 333 332 332 333 333 333 331 329 328 327 327 327 327 328 329 329 329 328
317 319 318 318 318 318 318 317 316 316 316 317 316 316 315 314 316 316 316 315 315 316 317 317 317 315 315 318 320 320 320 321 322 323 323 324 323 324 324 325 327 329 332 334 334 335 336 335 335 334 334 334 333 331 331 330 333 335 334 334 335 334 331 330 328 328 331 333 333 331 332 332 332 331 329 326 325 325 325 326 325 327 327 327 326 325
316 318 319 318 319 319 318 318 318 318 318 318 318 317 316 315 316 316 316 315 316 316 317 318 317 315 315 318 321 321 321 322 322 324 324 324 324 325 324 324 326 327 329 333 335 335 335 334 334 334 334 335 335 332 331 330 334 336 335 335 336 334 333 331 327 326 329 332 333 332 332 332 330 330 329 327 325 325 326 326 325 325 325 325 325 325
316 317 320 319 319 319 318 319 319 319 318 318 319 317 316 317 317 316 318 319 318 317 317 317 316 317 318 320 321 321 322 321 322 324 325 325 325 326 325 324 326 326 326 329 333 335 334 332 333 334 334 335 336 335 334 334 335 336 336 336 336 335 335 332 328 327 328 330 332 332 332 332 330 329 327 327 327 326 326 325 324 324 324 324 325 324
316 318 321 319 318 319 319 319 319 318 318 318 317 317 317 319 319 317 318 320 318 317 317 317 317 318 319 320 321 320 321 321 321 323 323 324 325 326 326 325 325 326 326 326 330 334 333 330 331 332 333 334 335 335 335 335 335 336 335 336 336 335 335 333 330 327 325 327 330 331 331 332 330 329 328 327 326 326 326 325 325 325 324 324 325 325
318 318 321 319 318 318 318 318 318 318 319 318 317 318 318 319 319 318 317 318 317 317 318 317 317 317 317 318 321 321 321 321 320 321 321 322 323 325 325 324 325 327 325 323 325 328 328 327 327 329 331 333 333 332 332 333 334 335 334 334 336 336 335 335 332 327 324 325 327 328 331 332 330 329 328 325 324 326 327 327 327 327 326 326 325 323
320 317 319 321 319 318 317 317 317 317 318 318 318 319 319 317 317 317 317 318 318 318 318 317 317 317 316 318 321 321 321 321 321 321 321 321 322 322 322 322 324 327 326 324 324 324 322 323 325 325 328 331 332 331 332 332 333 333 332 332 335 336 336 336 333 329 325 325 325 326 329 330 329 327 325 323 325 327 327 327 327 327 327 326 323 320
321 318 318 320 320 318 317 317 317 317 317 317 318 319 319 318 318 318 318 318 318 318 318 318 317 317 318 320 321 322 322 322 322 321 321 322 321 321 322 321 322 325 326 326 326 324 320 321 324 324 325 329 331 330 330 330 330 331 330 330 332 333 335 336 335 331 328 326 325 325 327 329 330 329 326 325 327 327 327 325 325 326 326 324 321 318
321 320 318 319 319 318 318 319 319 319 319 317 317 318 318 318 318 318 319 317 317 317 318 319 318 317 319 323 322 322 322 321 321 322 321 322 321 321 322 322 322 323 325 325 323 321 320 321 323 323 323 327 328 327 327 327 327 328 328 328 329 331 332 335 335 333 331 327 324 324 326 328 329 329 329 327 327 328 326 325 325 325 324 322 321 321
320 320 318 318 318 317 319 321 320 320 321 319 319 319 319 319 318 317 318 317 317 317 317 318 318 318 321 323 322 321 321 321 321 322 322 321 321 321 322 323 325 324 323 322 320 319 320 320 321 322 322 324 325 324 324 325 325 326 326 327 328 328 330 332 332 332 332 331 325 322 324 327 327 328 328 327 327 327 326 326 326 325 323 323 323 322
321 321 318 318 319 319 320 321 319 319 320 319 320 320 321 321 318 317 318 318 318 317 317 318 317 319 322 323 321 321 322 321 321 322 322 321 321 321 322 323 324 323 320 319 318 319 319 320 321 321 322 322 323 322 323 323 323 324 324 324 325 326 328 330 331 331 332 332 329 325 323 326 327 327 327 327 327 326 325 326 326 325 325 324 322 320
321 321 319 318 320 320 320 319 319 318 318 319 320 320 320 321 320 319 319 319 319 318 318 318 318 319 322 322 322 322 322 322 322 321 321 321 321 321 322 321 322 324 322 319 318 318 318 319 320 321 321 322 322 322 323 322 322 323 322 323 323 324 325 328 330 331 330 330 330 329 327 327 328 327 326 327 327 325 325 326 327 327 326 323 322 322
319 320 320 318 320 321 320 320 319 319 318 318 320 320 320 320 320 321 320 320 319 318 318 319 318 319 321 323 322 322 322 321 322 321 321 321 321 321 321 321 321 323 324 323 322 320 318 319 320 320 321 321 321 322 322 322 321 321 321 321 322 322 323 326 328 329 329 329 329 330 329 329 329 328 326 325 325 325 326 327 327 327 325 323 324 324
319 321 321 319 320 321 321 320 320 320 320 319 321 321 320 319 319 320 319 318 319 319 318 319 318 319 322 323 322 321 322 321 321 322 321 321 321 321 321 321 321 322 323 325 325 323 320 319 320 321 320 320 322 322 322 321 320 320 320 319 320 320 320 323 326 327 328 330 331 331 331 330 329 328 328 327 325 324 325 326 328 327 323 322 325 325
321 322 322 320 320 320 320 321 322 322 321 320 321 322 321 320 320 320 319 318 319 319 319 319 319 320 322 322 322 322 322 321 322 322 321 321 321 321 321 321 321 322 322 322 323 322 321 319 319 320 320 320 321 321 321 320 319 319 319 318 318 318 318 320 323 325 327 331 333 333 333 332 330 328 329 330 327 325 325 328 328 326 323 323 325 324
322 322 323 323 322 321 321 322 323 323 322 321 322 322 322 321 321 321 320 319 320 319 319 320 321 320 321 322 322 322 322 321 322 322 322 322 321 321 321 321 321 321 322 322 322 322 323 322 321 320 319 319 320 320 319 319 319 318 319 318 318 317 317 318 320 323 327 332 334 333 333 334 331 329 330 330 328 325 327 329 328 325 323 324 325 323
322 321 322 323 322 323 322 322 323 323 323 323 322 322 322 322 322 322 321 321 321 320 320 321 322 321 322 322 322 322 322 322 322 322 322 322 322 321 321 321 321 320 321 322 322 322 322 323 324 323 321 318 319 319 319 319 319 319 318 318 317 317 317 318 319 321 326 331 333 332 332 333 332 330 331 331 328 326 327 328 327 325 323 323 322 322
323 321 322 323 322 322 322 322 322 322 322 322 322 322 322 322 322 322 322 322 322 322 321 322 323 322 322 322 322 322 322 322 322 321 321 322 321 321 321 321 321 321 321 321 322 321 321 321 323 325 324 320 318 318 319 319 319 318 318 317 317 317 317 318 319 321 324 328 331 332 331 331 331 330 331 331 329 327 327 328 327 325 323 321 320 320
322 322 323 322 321 322 322 321 321 321 321 321 322 322 322 322 323 323 323 323 323 323 323 323 323 323 322 323 322 322 322 322 321 321 321 322 321 322 322 322 321 322 322 321 321 321 322 322 322 325 325 322 318 318 319 319 320 318 317 317 317 317 318 318 319 320 322 326 329 330 330 330 330 330 330 330 329 327 327 328 326 324 323 321 320 319
321 321 323 322 321 322 321 321 321 321 321 322 321 321 321 322 322 322 322 323 323 323 323 322 322 321 322 323 322 322 322 322 321 321 321 321 322 321 321 322 321 322 321 322 322 322 322 322 323 324 324 322 320 320 320 321 322 320 317 317 317 317 317 318 319 319 321 324 327 329 329 329 329 329 329 329 329 327 327 327 325 324 323 321 321 320
320 321 322 322 322 322 320 321 321 321 322 322 322 321 321 321 321 322 322 322 322 322 322 321 321 321 321 322 323 323 323 322 322 322 321 322 322 322 322 322 321 322 322 322 323 323 323 322 323 324 323 322 322 322 322 322 324 321 318 317 317 317 317 317 318 319 320 323 326 327 328 328 328 329 328 329 329 328 327 325 324 323 323 322 321 320
322 322 322 322 321 321 321 320 321 322 323 323 322 321 321 321 321 321 321 321 321 321 321 321 321 320 321 322 323 323 323 323 323 322 322 322 322 322 322 322 322 322 322 322 321 322 321 321 321 321 321 321 323 324 324 324 323 321 318 317 317 317 317 317 317 318 318 320 323 325 326 326 327 328 328 329 329 327 326 325 324 323 323 322 322 319
322 322 321 321 321 321 321 321 322 323 323 321 320 320 321 321 320 320 320 320 320 320 321 321 320 321 322 323 324 323 323 323 323 322 322 322 322 322 322 322 322 321 321 321 320 319 318 319 320 320 319 319 321 324 324 322 320 319 318 318 318 317 317 317 317 317 318 318 320 322 322 323 325 325 326 327 328 327 326 325 325 324 323 323 322 320
321 322 321 320 320 321 321 321 323 323 321 320 321 320 320 320 320 320 320 319 320 321 322 321 321 322 324 324 323 323 323 323 322 322 322 322 322 322 322 322 322 321 320 319 318 317 317 317 318 319 319 318 319 321 321 319 318 318 318 318 318 317 318 318 317 318 318 317 318 319 320 321 322 323 324 326 327 327 326 326 325 325 325 324 323 320
320 320 320 319 320 321 320 320 321 321 321 321 321 320 321 321 321 320 319 319 322 323 322 322 322 323 324 324 323 323 322 322 322 322 322 322 321 322 322 322 321 321 320 318 317 317 317 317 317 318 318 318 318 319 319 319 318 318 318 318 318 318 318 318 318 318 318 318 318 318 319 319 321 321 322 324 325 326 325 325 325 325 325 325 323 321
319 319 320 320 320 319 319 320 321 321 320 320 320 322 323 323 323 322 319 319 322 323 323 323 322 322 323 323 323 323 322 321 321 321 322 321 321 321 321 321 321 321 320 318 317 317 317 317 318 317 317 318 318 318 318 318 318 319 318 318 318 318 317 317 318 318 318 318 318 318 319 319 320 321 322 323 324 324 325 324 325 326 326 324 323 322
318 318 319 319 318 318 319 320 320 320 319 320 322 323 322 322 323 322 319 318 321 323 322 322 322 323 323 323 322 322 321 320 319 320 321 321 321 321 321 321 321 320 320 319 317 316 317 317 317 317 317 318 318 318 318 318 318 318 318 318 318 318 317 317 317 318 318 318 319 319 319 319 320 320 321 322 323 324 324 324 325 326 326 325 324 324
318 318 317 317 317 318 318 319 319 318 318 319 321 321 321 321 322 320 318 318 320 322 321 321 322 322 322 322 321 321 320 319 319 320 321 320 321 321 320 320 320 320 320 319 317 316 316 317 318 318 317 317 318 318 317 318 318 318 318 318 317 317 317 317 317 318 320 320 321 321 320 319 320 320 320 322 323 323 324 324 324 325 325 325 324 324
318 317 316 316 316 317 318 318 318 317 318 320 321 321 321 320 319 318 317 319 320 320 320 320 320 320 320 320 320 319 319 319 320 320 320 320 321 320 319 319 319 319 320 319 317 316 316 317 318 319 318 316 317 317 317 317 318 318 318 318 318 317 317 317 317 318 319 320 321 321 320 320 320 321 321 322 324 324 324 324 324 324 324 323 323 322
317 316 316 316 316 316 316 317 317 317 319 321 321 321 320 318 317 317 317 319 320 319 319 319 319 319 319 319 319 319 319 320 320 320 320 320 320 320 319 318 318 319 319 319 317 316 316 316 317 319 319 317 316 317 317 317 317 317 317 317 317 317 317 317 317 317 317 318 319 319 319 319 320 321 321 322 324 324 324 324 323 323 322 322 321 321
316 316 316 315 316 316 316 318 318 318 319 320 320 319 319 318 317 317 317 318 318 318 318 318 318 317 317 318 318 318 319 319 319 319 320 320 320 320 319 318 318 318 317 317 317 317 316 316 316 317 317 316 316 317 317 317 317 317 317 317 317 317 317 317 317 317 316 316 317 317 318 318 319 320 321 322 323 324 324 324 323 323 322 322 321 321
316 315 315 315 315 315 316 317 318 317 318 319 318 317 317 317 316 316 316 316 316 316 316 317 317 317 316 317 317 317 318 318 318 319 319 319 319 319 319 318 318 317 316 317 317 317 316 316 316 316 316 316 316 317 316 317 318 318 317 317 317 316 316 316 315 316 315 315 314 315 317 318 319 320 322 323 323 324 324 324 323 323 322 321 320 320
316 316 316 316 316 315 316 316 317 317 319 319 318 316 315 315 315 314 314 314 315 315 315 316 316 316 315 315 315 316 316 317 318 318 318 319 318 318 318 318 318 317 317 317 317 317 317 317 316 316 316 317 316 316 316 317 319 319 318 317 317 316 316 316 315 315 314 314 314 315 319 321 322 322 323 323 323 324 324 324 323 322 322 320 319 319
315 316 316 315 316 316 316 316 317 317 318 318 318 316 315 314 314 314 314 314 315 315 315 315 315 315 314 314 313 314 314 315 316 317 317 318 318 317 317 318 317 317 316 316 315 316 316 317 316 317 317 316 316 316 316 316 317 319 320 319 318 316 316 316 315 315 314 313 314 317 321 323 323 323 324 324 324 324 324 323 323 322 321 320 319 318
314 315 315 315 315 316 315 315 315 316 317 318 317 315 314 314 314 314 313 314 314 315 315 314 314 314 313 312 312 312 313 313 315 316 317 317 317 317 317 316 316 316 315 314 313 314 316 316 317 317 317 316 316 316 316 316 316 317 319 319 317 317 317 316 315 315 314 314 315 318 322 323 323 323 324 324 324 324 323 323 323 322 320 320 320 319
314 314 314 314 315 314 314 314 315 315 316 316 315 314 314 314 313 313 313 313 314 314 313 313 312 312 312 311 311 311 311 312 313 315 315 316 316 317 317 316 316 316 315 313 312 313 315 316 317 317 316 316 316 316 316 317 316 316 317 318 317 317 317 316 316 315 315 314 316 318 320 322 322 323 323 323 323 323 323 323 322 320 320 319 319 319
313 313 312 312 313 313 313 313 313 313 313 313 313 313 313 313 313 312 312 312 312 312 312 311 311 311 310 310 310 310 311 311 312 313 314 315 315 316 316 316 316 316 315 313 312 312 313 314 315 316 316 316 316 316 317 317 316 316 316 317 317 317 316 316 317 316 315 314 314 316 318 319 321 321 321 321 321 321 321 321 320 319 318 317 317 317
311 311 311 311 311 311 312 312 312 312 312 312 311 311 311 311 311 311 311 311 311 311 311 310 310 310 310 310 310 310 310 311 311 312 313 314 315 315 315 316 316 316 315 314 313 312 312 312 313 315 316 316 316 316 316 316 316 316 316 316 317 317 317 316 316 317 317 316 316 316 316 317 319 320 319 319 319 319 319 319 318 318 317 316 315 315
311 310 310 310 310 310 311 310 310 310 310 309 308 308 309 309 309 310 310 310 310 310 310 310 309 309 309 309 310 310 310 310 311 311 313 314 314 314 315 315 316 315 315 315 314 313 311 311 311 312 314 315 316 316 316 316 316 317 316 316 316 316 317 317 317 318 319 319 318 316 315 316 318 318 318 318 318 318 319 318 318 317 317 316 316 315
Wind_Speed
4 5 7 6 5 3 2 1 3 3 1 2 2 2 2 3 1 4 3 3 2 6 5 6 8 8 7 6 5 7 9 9 10 10 11 11 11 11 11 12 12 12 12 12 13 14 15 15 16 17 17 18 18 18 17 17 15 15 15 15 16 14 13 14 14 14 14 14 14 11 8 7 8 9 9 9 9 9 8 7 7 8 8 9 10 10
4 7 6 4 1 3 2 1 1 2 2 3 4 3 3 4 1 4 2 2 0 5 2 2 7 8 7 7 6 7 9 10 11 11 12 12 11 11 12 12 12 11 11 12 13 14 14 15 16 17 17 17 18 17 16 16 15 15 15 16 15 13 13 13 13 13 13 13 12 10 7 7 7 8 8 8 9 9 7 7 7 8 8 8 9 9
6 7 5 4 3 3 2 2 4 4 3 5 4 4 4 2 1 2 2 2 1 4 3 2 6 6 5 6 7 9 10 10 11 11 11 12 12 12 12 12 11 11 11 13 14 14 15 15 17 17 17 16 15 14 14 14 14 14 15 15 14 14 13 13 13 14 13 12 12 10 8 8 7 8 8 8 9 9 8 7 7 7 7 8 8 8
5 4 6 5 4 5 4 5 6 5 5 5 3 5 4 2 2 3 3 3 2 3 4 5 6 5 4 6 8 10 11 10 10 11 11 12 12 12 12 11 11 11 12 13 14 15 15 16 18 18 18 17 16 15 13 14 15 15 15 15 14 14 14 13 14 14 14 13 12 12 12 11 9 9 10 10 10 10 9 7 7 7 8 7 7 8
2 6 7 5 7 8 6 6 7 6 4 3 4 6 5 3 3 3 2 0 4 5 4 6 7 6 5 7 7 7 9 9 10 11 12 13 14 13 13 12 12 12 12 13 14 16 16 16 17 18 18 18 17 16 14 14 15 14 14 14 13 13 13 14 14 13 13 14 14 14 14 13 12 12 11 10 10 11 11 9 8 8 8 7 7 7
1 6 5 7 8 9 8 6 6 6 4 3 4 3 4 3 3 3 2 4 5 5 1 3 7 4 4 6 6 5 6 8 9 10 12 13 13 14 14 14 13 13 13 13 14 15 16 16 17 17 18 18 17 16 15 15 15 14 14 14 13 12 13 14 14 14 14 14 15 15 15 14 14 13 12 11 10 12 12 10 10 10 9 8 7 7
3 5 4 6 8 9 9 7 5 4 7 2 3 2 1 3 3 4 5 5 6 3 2 3 7 5 2 4 4 4 5 7 7 9 11 11 12 13 14 13 13 13 13 14 14 15 16 17 17 17 18 19 17 15 16 17 16 15 15 14 13 12 13 15 15 15 16 15 14 14 15 15 14 12 11 11 11 11 12 11 12 12 11 11 10 9
5 7 6 7 9 9 8 6 5 5 8 1 5 2 3 3 3 4 5 6 5 5 3 4 5 6 6 4 4 3 7 8 8 9 10 12 13 13 12 11 11 12 13 14 15 16 17 17 17 17 17 17 16 15 17 18 18 17 16 15 14 13 13 14 15 15 16 15 14 14 15 15 15 13 11 11 11 12 12 13 13 14 13 13 12 12
6 8 8 9 9 8 7 3 4 7 7 1 5 2 3 2 4 4 5 6 3 4 6 5 3 5 7 4 4 5 8 10 10 10 10 12 12 11 12 11 10 11 12 13 13 16 17 17 16 15 15 14 15 16 18 18 18 17 17 16 16 15 14 14 14 15 15 14 13 14 15 15 15 14 12 11 11 12 13 14 14 14 14 14 13 13
4 2 2 6 8 7 5 1 2 7 5 3 5 4 4 4 4 5 5 4 2 5 7 2 1 5 6 5 4 5 6 8 7 7 7 7 6 5 7 9 8 8 11 12 12 14 16 16 14 13 13 13 15 16 17 18 19 19 18 17 16 15 14 13 13 14 14 13 13 14 15 15 14 14 13 12 13 13 14 15 14 13 13 13 13 12
3 2 2 5 6 2 2 4 2 4 1 4 6 6 5 6 4 4 4 4 4 6 4 2 1 5 6 5 3 1 2 4 4 5 5 4 4 3 2 3 4 5 8 10 11 13 15 14 13 13 13 14 15 16 17 18 20 20 18 17 16 15 13 13 13 14 14 14 14 14 14 14 14 13 13 14 14 13 13 13 12 12 12 11 11 11
7 6 4 5 4 1 3 4 2 2 4 5 7 6 6 5 5 5 5 4 6 4 3 4 2 6 6 4 1 1 1 3 4 6 6 6 7 6 4 3 2 2 5 7 9 12 13 14 14 14 14 15 16 16 17 19 20 20 17 16 16 15 14 13 14 14 14 14 14 14 14 14 14 13 13 13 13 13 12 12 11 11 11 10 10 10
9 10 9 6 5 7 8 6 5 5 6 7 7 6 6 5 4 5 5 4 5 1 5 4 2 5 7 6 4 4 3 3 3 4 6 6 8 8 7 5 3 2 3 5 7 10 12 14 15 15 15 16 17 16 17 19 19 17 16 16 16 15 13 12 13 13 13 14 14 14 14 14 14 14 14 14 14 14 12 12 12 11 11 10 10 9
7 9 11 10 7 10 12 8 6 7 8 9 8 6 6 5 5 6 5 4 5 1 5 4 2 5 7 4 2 2 2 1 1 3 5 5 7 8 8 7 6 4 4 5 7 9 11 12 13 15 16 17 17 16 17 19 17 15 15 16 16 14 12 11 11 12 13 14 14 14 14 14 14 14 14 14 14 13 13 13 13 12 12 11 11 10
7 5 10 11 7 11 15 11 6 4 7 9 8 6 7 6 6 6 5 5 4 1 3 5 3 5 3 2 2 2 3 5 6 6 6 7 8 8 7 7 6 5 4 5 7 9 10 11 11 13 15 17 17 16 17 19 17 15 15 16 16 15 13 12 12 11 13 14 14 14 14 14 14 14 14 14 14 14 14 14 15 15 14 13 12 11
7 4 7 8 4 9 14 11 6 6 6 6 5 7 7 6 6 4 2 3 4 5 3 5 4 4 3 2 3 5 5 6 7 6 7 7 7 7 7 7 6 5 5 4 6 8 9 9 11 12 13 16 17 16 17 18 17 16 15 16 17 16 14 12 10 10 12 13 14 15 16 15 15 15 16 16 16 15 15 15 15 15 15 14 13 13
7 4 9 8 4 6 8 7 7 6 4 4 6 7 2 2 5 3 1 2 2 6 5 4 5 5 4 4 3 2 4 4 4 5 5 4 5 6 6 6 5 4 3 3 3 6 7 8 9 11 12 14 16 17 17 17 17 16 15 16 16 16 14 12 9 8 10 12 14 16 16 16 16 15 16 18 18 16 15 14 13 11 11 12 13 13
7 4 9 10 8 6 3 5 7 4 4 3 5 6 5 1 4 4 4 2 3 7 5 4 8 7 4 2 3 2 4 3 2 3 3 4 5 5 5 4 4 3 2 3 3 3 5 6 6 9 11 12 14 15 16 16 16 16 15 16 16 16 16 13 10 9 10 12 14 16 17 17 16 15 14 16 17 17 16 15 14 12 12 13 13 13
7 6 6 8 6 7 6 7 7 5 6 5 2 4 4 4 5 5 5 5 6 7 6 7 9 7 5 3 1 3 3 3 5 4 4 5 4 4 4 4 4 2 1 3 4 4 4 3 4 6 8 10 12 12 13 14 15 16 15 16 17 17 16 14 12 11 11 13 14 15 17 18 18 17 15 15 16 17 17 16 16 15 15 15 14 13
6 7 4 6 5 7 7 7 7 7 7 5 3 4 5 5 4 4 5 5 7 7 7 8 7 6 6 3 1 4 4 5 6 5 5 6 5 5 4 4 4 3 3 3 3 5 6 4 3 4 6 8 10 11 11 12 13 14 14 15 16 17 17 16 15 13 13 14 15 16 17 19 19 18 17 17 17 18 18 17 17 17 16 16 14 13
6 6 6 4 6 6 8 8 10 9 8 8 8 8 7 4 3 4 5 6 7 8 7 7 7 7 4 1 2 5 5 5 7 6 6 7 6 6 5 5 6 6 6 6 6 6 6 6 5 5 5 7 9 9 9 10 10 11 13 14 15 16 17 17 17 16 14 14 16 17 18 20 20 19 19 19 19 19 19 18 18 18 17 16 14 14
6 7 7 5 6 8 8 6 5 7 6 8 9 9 9 8 6 6 8 7 7 8 8 8 9 7 1 2 2 5 6 7 8 7 7 8 8 7 7 7 8 9 9 10 10 9 7 7 8 7 7 7 8 8 8 8 9 10 11 12 13 15 17 18 18 18 17 16 16 18 18 19 20 20 20 19 20 20 19 19 19 18 17 16 14 14
3 5 8 8 8 6 3 4 2 5 5 7 8 9 10 9 8 9 9 7 6 8 9 9 10 8 3 2 3 5 7 9 9 8 9 10 9 8 9 9 9 11 13 13 12 11 10 9 10 10 10 10 10 10 9 9 9 10 11 11 12 14 16 17 18 19 19 19 18 18 18 19 19 20 20 20 21 21 21 20 20 19 18 17 16 15
2 5 8 9 8 5 4 4 1 1 4 8 9 9 10 10 10 10 8 6 6 8 8 8 9 9 5 5 5 6 8 10 10 9 11 12 11 11 11 11 10 11 13 15 15 15 14 12 11 12 13 13 13 13 12 11 11 11 12 12 13 14 14 17 19 19 20 20 19 19 19 19 20 21 21 22 22 23 23 22 21 20 20 19 17 16
6 7 8 8 9 8 5 6 6 4 5 8 9 10 11 13 13 10 6 6 8 11 12 10 10 7 2 6 6 7 9 11 11 10 12 13 13 14 13 12 11 11 12 14 15 17 18 17 14 14 14 15 15 15 14 13 12 12 13 13 13 14 15 17 19 20 21 21 21 21 21 22 23 23 23 24 24 24 23 22 21 20 19 18 17 16
8 8 8 9 11 10 10 8 6 6 8 8 9 10 11 14 14 9 7 9 10 12 13 11 10 9 4 6 8 7 9 11 11 11 12 12 14 15 14 14 15 15 16 15 14 16 19 20 18 15 16 16 15 15 15 14 13 13 12 12 12 13 15 17 19 21 21 20 20 21 22 23 24 24 23 24 25 24 23 22 21 20 19 19 18 17
7 8 10 13 13 11 12 6 0 2 8 10 10 11 12 13 14 10 9 10 11 11 12 12 13 14 13 11 11 10 10 10 11 13 14 15 16 16 15 16 17 19 19 19 19 20 21 22 21 18 17 17 16 15 15 15 14 13 13 13 13 13 15 17 19 21 21 18 18 19 20 21 23 24 24 24 24 24 23 23 22 20 20 20 19 19
7 9 13 16 16 15 16 10 2 2 9 11 11 12 12 12 13 12 11 12 11 11 12 13 14 15 15 14 14 13 11 11 12 15 17 18 18 18 18 19 21 23 22 20 20 20 20 21 22 21 20 19 18 17 17 17 16 15 14 14 14 14 16 17 18 20 19 17 18 19 19 19 21 22 23 23 24 25 25 25 25 22 21 21 21 21
7 9 12 15 16 15 16 13 8 7 10 11 12 13 13 12 13 13 14 14 14 13 13 14 16 17 15 14 14 13 12 12 15 19 19 18 19 20 22 22 24 26 25 22 20 19 19 20 21 21 21 21 21 19 19 19 17 16 15 13 13 15 16 16 17 18 18 17 18 18 17 17 18 18 21 23 23 25 27 29 28 25 24 24 24 23
6 8 9 11 13 14 15 13 11 11 12 12 14 15 15 15 15 16 16 16 17 17 17 17 19 18 15 14 15 16 18 19 19 19 17 17 19 19 20 21 23 24 24 21 19 19 19 20 21 20 20 22 23 22 21 20 19 17 14 11 12 14 15 16 16 16 17 17 18 17 16 17 17 16 19 21 20 22 26 30 29 27 26 27 26 24
4 4 6 8 10 13 15 13 12 13 14 14 15 16 16 15 15 15 15 14 15 17 17 18 19 16 14 15 16 17 18 18 16 16 16 17 18 17 18 20 21 22 22 20 19 18 18 19 19 19 19 22 24 24 23 21 18 16 13 10 10 11 13 14 14 15 16 17 17 16 16 18 18 17 19 20 20 22 25 29 31 30 29 28 26 23
4 3 4 7 9 10 13 14 14 14 15 16 17 17 17 17 16 14 13 13 14 16 17 18 16 12 10 11 11 12 11 11 12 14 16 17 17 18 18 18 18 19 19 19 18 18 17 17 17 17 19 22 23 24 25 21 17 16 14 11 9 10 11 12 12 13 14 15 16 16 17 18 18 18 20 21 22 22 25 29 31 31 31 30 27 25
5 5 5 6 8 10 13 14 13 13 13 14 15 16 18 18 16 15 15 15 16 15 14 13 11 11 10 7 7 7 8 10 13 15 17 18 18 17 16 16 16 17 18 18 18 18 18 18 17 17 18 20 20 22 23 20 17 17 16 13 11 11 11 11 12 12 12 14 15 16 17 18 18 19 20 22 21 21 24 29 30 30 31 30 28 28
4 6 6 6 8 10 11 9 9 12 13 10 9 12 17 18 18 18 17 17 17 15 13 12 12 13 11 7 6 7 7 9 12 15 17 16 13 12 13 14 17 18 19 20 20 20 21 21 21 20 20 19 17 19 20 19 18 18 19 17 15 14 14 13 13 13 12 13 14 15 16 18 19 20 20 20 20 21 23 26 27 29 30 29 28 28
3 5 5 5 6 7 5 6 8 11 11 9 8 8 12 15 16 17 16 16 17 15 14 14 13 10 8 6 5 5 6 8 12 15 13 8 7 8 12 14 17 19 21 21 22 23 23 23 22 23 23 20 17 16 19 22 22 21 21 21 19 17 17 17 16 15 14 14 15 15 16 16 18 19 19 20 21 21 23 24 25 27 27 28 29 28
3 3 2 3 6 5 5 8 10 7 2 2 5 5 6 9 12 12 13 14 12 9 9 10 8 5 4 4 4 5 7 10 13 12 5 4 8 9 11 14 17 19 20 21 23 23 23 23 21 21 22 21 17 15 18 22 23 22 22 23 22 20 19 19 18 18 18 17 17 17 16 16 17 18 19 20 22 23 23 22 23 25 24 26 28 27
3 2 2 4 6 5 6 9 10 8 5 5 7 6 5 6 7 7 9 9 4 2 4 6 4 2 3 3 4 7 8 11 12 8 2 7 11 11 12 13 16 18 19 21 23 22 20 20 19 17 19 19 16 15 16 19 22 22 22 22 22 21 20 20 20 21 21 21 20 19 19 18 17 17 18 20 22 23 24 23 22 23 23 25 26 26
5 4 3 4 5 5 7 9 10 11 11 7 5 5 4 1 1 3 6 7 5 6 4 3 3 3 4 4 6 8 9 10 9 6 2 11 15 14 13 14 15 18 19 20 22 21 18 16 14 12 14 16 16 15 16 18 21 22 21 20 20 20 20 21 22 23 23 24 24 22 22 20 19 18 18 20 22 23 24 24 22 22 23 25 26 26
9 6 5 5 6 6 8 9 9 9 8 3 6 8 6 3 4 5 7 7 6 7 3 2 3 3 4 5 7 8 7 8 8 5 8 15 16 15 16 16 16 18 19 20 22 20 18 15 11 9 11 14 15 15 15 16 18 20 20 19 18 18 19 20 22 22 23 24 24 24 24 23 22 21 20 20 21 22 23 23 22 22 23 25 25 27
8 6 7 9 10 9 9 8 8 7 4 4 8 8 7 5 6 7 9 5 6 7 2 1 3 4 5 7 7 7 7 8 9 10 13 16 15 14 15 17 18 18 18 21 22 19 16 15 12 10 10 11 13 13 13 14 16 17 17 17 16 16 16 16 17 17 18 19 21 23 26 26 25 24 22 20 21 22 22 22 22 22 23 24 24 25
6 5 7 9 11 12 11 10 8 6 2 7 9 9 8 6 5 8 7 1 6 5 3 2 4 5 6 9 9 9 11 12 13 14 16 16 14 14 14 15 16 16 15 19 21 18 15 15 14 12 10 8 8 10 11 12 13 13 13 13 13 12 11 11 11 12 13 14 16 19 23 26 27 27 24 21 21 22 22 22 22 22 21 21 21 21
6 6 8 10 11 11 11 10 10 7 4 9 9 8 9 6 5 5 1 4 4 4 3 3 5 6 6 10 12 13 14 15 14 14 15 15 14 14 14 14 15 15 15 17 19 17 15 13 12 12 10 7 2 3 5 7 7 8 9 9 9 9 9 10 10 10 11 11 12 15 18 22 26 28 27 24 22 23 23 23 22 22 20 19 19 19
7 7 8 9 10 9 8 9 10 6 5 12 11 7 8 8 4 1 2 4 4 4 4 5 6 6 7 10 12 14 15 15 14 13 13 13 14 13 13 14 15 16 16 17 17 17 16 15 12 10 10 9 5 1 2 4 5 6 8 8 8 9 10 10 10 10 11 12 14 16 18 21 24 28 28 26 24 23 23 22 21 21 20 19 18 18
7 7 8 8 8 9 9 9 7 1 6 14 10 4 6 6 2 1 2 4 3 4 5 5 6 6 7 9 11 14 15 15 14 13 12 13 13 13 13 14 14 15 16 16 17 17 17 16 14 12 12 11 8 5 5 5 6 8 9 8 9 10 9 9 10 10 12 13 15 18 20 21 23 26 26 26 24 22 21 21 21 21 21 20 19 18
5 3 3 4 6 8 8 6 1 5 8 12 8 2 3 4 2 2 3 5 5 5 5 6 7 7 7 9 11 13 14 14 14 13 12 13 14 14 14 14 14 15 15 14 15 17 16 16 16 15 14 13 10 8 6 6 7 9 9 9 10 10 9 9 10 10 11 13 14 16 18 20 21 22 23 24 23 22 21 21 21 21 21 21 20 20
2 2 1 3 5 6 9 8 4 3 6 9 7 4 5 5 5 4 5 7 8 7 6 7 8 8 9 10 12 13 14 15 15 15 14 14 14 14 14 14 13 13 14 15 17 17 17 16 16 15 15 15 13 10 7 6 6 8 9 9 10 10 10 11 11 10 10 11 13 14 15 16 18 19 20 22 22 21 21 21 22 22 22 22 22 22
2 3 2 4 4 4 5 6 7 8 9 9 9 9 8 7 7 7 7 9 9 8 8 8 9 10 11 12 13 14 15 15 16 16 15 15 14 14 14 14 14 13 14 16 18 16 18 20 18 17 17 17 17 14 11 8 7 6 7 9 10 10 11 12 12 10 9 8 10 12 14 15 17 18 19 21 22 21 21 21 22 22 21 21 22 23
5 6 5 5 7 6 5 4 6 8 8 8 9 10 10 11 10 9 9 9 9 10 10 10 11 12 13 14 14 15 16 16 16 16 16 16 15 14 14 15 15 14 14 14 15 16 15 19 23 23 22 21 21 20 16 12 10 8 8 10 11 11 11 13 13 11 10 8 7 9 12 15 17 18 19 21 22 22 22 22 22 22 22 23 24 25
6 6 5 5 6 7 8 10 11 13 13 13 13 13 13 13 12 10 10 10 10 11 13 13 13 13 14 15 16 16 17 17 17 16 16 16 16 15 15 15 15 15 15 14 14 15 15 14 19 24 24 23 24 25 21 16 13 11 10 11 13 13 13 13 14 13 12 11 10 8 9 12 15 18 19 20 21 23 23 23 24 24 25 25 26 26
5 5 4 5 6 7 7 9 9 9 9 10 10 10 10 11 11 12 13 12 12 13 14 15 15 15 15 16 16 17 18 17 17 17 17 16 16 16 16 15 14 14 14 15 15 15 15 14 14 18 23 24 24 26 26 22 18 15 13 12 13 16 16 16 15 16 15 14 13 11 10 11 13 16 19 20 20 21 22 23 23 24 26 25 24 24
8 7 6 6 8 9 8 8 8 8 9 9 9 10 11 12 13 14 14 14 15 15 15 16 17 17 16 16 16 16 18 18 18 18 17 17 17 17 16 15 14 13 14 15 16 17 16 14 13 13 17 21 23 25 26 26 24 20 17 15 14 16 18 18 18 17 16 15 15 15 14 12 12 14 16 18 18 18 19 20 21 23 25 25 23 22
Wind_Direction
228 229 213 219 215 185 141 257 342 20 340 297 277 255 278 275 107 69 41 55 309 269 246 248 256 249 236 218 202 198 199 211 218 218 221 220 216 214 212 212 208 205 204 200 203 207 211 214 212 213 220 226 230 233 237 241 236 228 228 233 237 234 229 231 231 230 233 241 244 240 238 235 230 229 229 225 220 218 217 219 225 228 227 218 212 211
219 234 213 200 103 89 128 164 224 228 239 254 258 257 238 243 116 72 24 43 278 269 270 279 269 254 239 231 212 211 216 222 225 223 224 223 219 216 215 216 212 206 201 197 198 203 210 211 209 212 216 220 223 228 236 237 230 228 229 229 232 230 225 226 226 225 230 236 235 233 237 233 227 228 226 223 222 216 214 219 220 222 223 216 212 212
216 225 175 125 94 114 158 183 211 224 238 245 253 265 251 235 104 146 133 90 195 270 311 324 281 260 234 229 218 218 227 231 231 230 230 227 222 217 216 217 213 206 196 193 195 200 206 210 214 220 222 222 222 228 236 229 223 227 227 224 224 222 221 220 219 221 225 230 230 228 226 217 214 218 213 209 213 211 210 213 212 209 208 210 212 212
214 189 123 122 168 180 180 184 208 223 228 247 263 265 270 21 304 233 126 105 188 260 304 303 280 262 222 218 222 221 228 232 228 229 233 233 229 222 219 218 212 205 196 193 195 196 200 208 215 222 227 227 228 234 236 223 218 222 223 219 216 217 218 217 218 220 223 226 226 225 226 219 208 210 213 212 212 209 207 206 204 203 204 206 208 209
215 81 99 146 192 206 201 189 215 239 220 218 259 277 304 358 304 303 54 80 224 213 259 284 273 255 216 215 221 203 211 225 223 227 233 234 233 229 226 222 213 208 202 198 196 194 196 202 209 215 219 223 225 230 234 225 219 220 221 217 212 215 218 219 219 218 219 223 223 222 225 223 216 214 214 209 207 208 208 206 206 208 208 206 208 210
166 86 127 173 188 208 217 206 214 250 259 211 212 252 324 323 303 306 296 279 252 212 163 308 279 259 191 218 227 182 198 221 217 225 235 232 227 225 226 221 214 212 209 203 200 197 198 201 205 208 210 214 217 221 226 225 221 220 221 216 211 213 217 220 219 216 218 220 223 223 221 219 218 217 210 200 201 208 211 210 212 216 218 217 219 221
130 120 173 194 195 203 220 227 196 231 271 255 138 127 316 282 281 296 292 285 275 270 52 332 286 283 247 232 202 173 228 235 219 227 237 237 230 226 227 222 214 210 205 203 203 201 201 202 203 204 208 212 214 215 216 217 216 215 216 216 214 212 215 220 218 217 220 219 219 222 221 218 214 210 204 201 202 207 211 213 218 224 226 227 227 228
156 161 183 205 209 207 221 230 178 205 264 308 91 125 218 249 271 295 293 276 286 316 296 245 259 279 277 258 146 172 254 251 235 237 239 242 239 233 233 228 217 209 201 200 201 200 201 204 205 204 209 213 212 211 209 210 211 211 214 218 219 216 215 219 219 218 221 218 214 219 223 220 214 207 204 205 206 209 214 218 224 229 231 232 233 234
168 186 188 199 211 217 228 234 156 204 255 64 97 188 214 250 279 278 280 272 283 306 269 219 199 263 271 256 173 198 258 259 249 247 245 248 247 241 241 240 227 211 202 200 199 198 200 205 208 207 209 211 207 209 208 207 210 212 215 220 222 219 216 217 218 217 219 217 213 217 222 221 215 208 205 207 211 214 221 227 230 232 234 235 236 238
133 183 216 217 222 227 218 122 148 223 251 98 135 191 195 220 252 249 267 280 260 265 267 214 173 274 282 277 227 204 254 269 264 262 261 266 271 262 257 256 240 208 198 201 198 197 201 206 211 209 206 204 201 205 207 207 209 213 216 218 218 217 216 215 216 217 217 216 214 215 219 221 217 209 204 205 211 218 228 233 234 234 235 238 240 240
127 109 311 242 244 268 129 96 85 241 230 126 173 200 208 214 224 239 256 275 264 250 240 125 228 273 280 283 262 183 325 316 303 293 296 301 303 305 294 277 246 201 192 198 195 195 200 205 209 209 204 201 200 202 203 204 207 212 212 211 212 213 213 213 215 217 215 213 213 213 215 217 216 213 209 209 214 221 226 227 228 230 231 235 239 239
196 200 213 211 232 258 163 153 135 179 184 195 214 223 228 218 208 229 221 216 253 247 137 121 208 253 261 261 262 12 334 300 291 292 301 306 309 315 318 312 289 200 189 190 191 191 195 199 204 208 206 201 201 202 202 202 205 207 206 202 202 205 209 212 215 217 214 212 212 211 212 211 210 211 210 209 211 214 217 219 219 221 224 226 229 232
208 217 208 188 192 212 221 210 174 178 197 216 228 228 239 234 214 233 225 214 253 247 111 130 204 243 258 263 278 305 303 294 292 285 290 301 309 316 317 309 299 257 209 194 192 192 195 200 203 206 206 202 204 204 202 204 204 202 200 198 198 201 207 214 216 215 214 213 213 211 208 207 208 208 208 210 209 210 212 214 214 214 215 218 222 226
200 206 202 199 193 203 223 226 193 189 199 213 223 221 233 245 237 242 248 247 259 203 124 148 216 257 259 249 232 297 328 311 232 243 266 280 285 297 306 304 294 274 235 206 202 199 199 204 206 207 206 205 207 205 202 205 203 197 198 198 199 202 205 212 217 215 213 213 213 210 205 204 205 206 208 208 206 207 207 205 206 209 209 212 216 220
210 202 192 198 183 183 207 230 244 228 203 210 226 234 239 249 251 251 256 257 259 267 149 161 201 260 268 86 136 232 265 253 245 238 247 256 257 265 277 281 283 279 258 221 209 206 205 207 206 208 208 205 208 206 204 205 201 197 199 199 201 203 203 210 216 212 211 213 213 209 204 203 203 203 205 205 201 202 204 204 204 205 207 208 209 213
236 243 163 160 142 176 203 221 242 258 223 195 212 238 244 255 259 261 319 329 313 303 254 196 228 268 296 314 245 255 268 258 252 234 229 240 235 238 251 253 259 271 274 251 216 206 211 211 205 207 208 204 206 204 201 201 200 199 201 201 204 205 204 210 217 210 208 211 213 210 205 202 204 203 202 203 202 201 204 209 211 208 206 204 203 208
234 227 143 147 162 186 214 210 202 238 235 166 200 223 217 300 275 252 184 43 315 275 260 229 251 261 262 257 217 239 274 258 247 226 221 237 226 224 238 238 240 253 275 284 235 206 211 214 207 209 211 206 205 205 202 201 202 204 207 209 210 208 206 209 214 209 206 209 212 212 207 204 208 206 200 200 201 200 203 209 212 210 203 199 203 208
232 224 157 176 193 169 189 203 186 224 244 203 216 191 130 116 263 250 244 221 227 252 250 240 262 269 260 232 157 204 267 279 282 262 256 258 237 225 229 228 228 232 301 333 319 263 236 227 217 210 210 210 210 210 211 211 209 211 216 217 214 211 208 208 211 211 209 210 214 214 209 207 210 212 207 202 198 197 201 204 207 210 208 206 209 211
222 238 171 173 186 148 157 198 188 189 224 257 289 152 163 231 221 207 231 241 245 255 254 250 262 270 259 246 233 264 283 303 299 292 290 282 266 255 248 240 226 212 314 335 324 313 298 269 239 216 206 208 211 211 212 214 215 218 223 221 216 215 212 210 211 211 209 211 214 215 212 210 211 213 213 208 201 200 202 204 208 212 212 212 214 213
202 236 206 161 161 152 166 208 212 187 190 230 255 198 218 262 250 222 223 237 255 261 260 259 259 260 258 240 258 288 290 293 294 293 294 294 291 284 272 263 259 260 291 297 290 298 298 288 262 231 210 203 207 209 208 211 215 219 226 227 222 220 216 213 213 213 212 212 213 214 213 211 210 210 210 210 208 206 206 206 209 211 214 216 217 215
190 224 232 161 143 179 197 207 219 214 193 196 215 217 214 218 246 264 243 238 258 264 262 262 254 257 271 163 215 281 290 283 283 282 284 291 291 290 288 282 283 288 293 294 294 289 278 267 252 238 227 210 209 212 209 212 216 216 223 227 226 227 224 220 220 222 222 219 215 213 212 211 211 210 210 211 212 210 208 208 208 210 215 218 218 214
197 209 225 197 175 209 214 194 226 256 237 215 216 218 219 218 227 246 241 233 243 256 263 265 260 261 265 120 221 280 288 281 278 276 280 286 288 290 289 284 286 292 297 299 297 291 278 260 246 239 237 231 230 232 225 225 228 226 226 225 226 229 228 227 229 231 231 228 222 216 212 210 211 212 214 214 214 214 211 210 211 214 218 221 220 215
199 212 221 224 216 209 156 102 25 324 290 256 243 233 232 231 230 240 248 239 229 240 254 261 264 265 241 192 251 273 280 288 289 278 273 278 282 283 282 283 285 289 296 300 296 291 283 267 250 241 241 242 245 246 243 242 240 238 237 234 231 231 230 229 231 234 233 232 229 222 215 210 209 211 214 214 216 216 215 214 215 217 220 222 220 213
162 217 218 230 232 197 117 110 119 334 270 248 239 238 242 239 238 247 259 264 249 243 250 254 258 261 237 208 238 262 276 285 281 267 264 269 273 274 273 277 279 283 294 300 298 294 289 280 263 248 242 242 245 247 246 244 243 242 241 240 241 242 239 232 230 231 232 233 232 227 218 211 208 210 211 213 216 218 216 214 214 217 220 219 214 208
183 216 212 225 232 216 202 207 201 196 219 234 233 227 230 237 242 250 259 266 260 254 258 262 262 267 209 166 208 253 274 278 274 267 265 263 263 268 271 275 279 284 290 296 298 297 295 290 279 261 249 244 244 246 244 241 240 242 245 246 248 250 249 241 234 232 232 232 232 230 222 215 213 214 215 216 219 218 217 216 216 218 217 211 208 207
193 220 208 219 230 223 223 226 222 219 211 217 231 220 217 229 233 236 249 251 251 252 255 258 263 274 254 190 210 249 267 271 273 275 275 267 259 262 268 277 284 288 289 290 292 294 294 293 287 272 257 249 242 238 239 241 239 242 249 255 256 256 254 248 241 237 234 229 226 225 223 221 222 224 222 221 222 223 220 218 217 216 211 205 203 203
210 230 218 229 239 237 238 232 111 267 223 208 213 212 213 224 226 230 244 246 251 259 256 253 261 273 272 258 258 269 270 272 278 281 280 274 267 262 264 275 284 286 285 286 286 287 288 289 289 281 264 251 241 234 233 235 235 237 246 255 258 260 258 254 248 242 234 223 215 215 214 219 228 232 227 222 226 229 223 215 213 212 207 202 199 197
223 226 219 231 240 248 254 247 186 255 241 227 222 219 214 215 219 226 236 242 252 263 261 260 265 272 276 277 278 280 280 282 287 286 284 284 283 281 279 282 284 284 283 282 281 281 280 279 283 283 270 250 240 234 228 226 230 235 242 251 258 261 259 256 253 246 233 216 211 213 211 215 227 232 227 223 228 231 222 213 212 211 205 201 198 196
232 228 220 228 236 242 251 251 239 241 247 242 239 236 230 223 222 226 235 242 248 255 261 268 273 275 276 278 281 285 286 287 289 289 290 293 292 288 285 285 284 283 282 280 278 277 276 273 273 277 273 256 243 234 227 226 230 235 240 248 258 261 259 255 250 245 233 215 211 215 214 215 224 226 221 221 227 230 222 216 216 214 208 203 200 197
240 233 217 223 237 239 238 238 235 234 240 240 237 238 238 235 234 236 241 245 250 256 263 270 275 275 274 278 281 283 282 283 287 289 290 292 292 288 287 286 284 283 283 282 282 281 278 274 267 266 268 261 248 237 232 232 232 233 236 243 253 259 260 254 244 238 232 219 211 212 214 217 221 219 216 217 222 225 221 218 218 218 212 205 202 202
231 219 189 207 237 242 234 232 229 227 233 237 234 234 235 234 236 238 243 247 251 258 262 266 271 271 269 275 279 277 279 284 288 290 291 294 296 295 293 289 287 287 285 284 284 283 280 276 268 260 259 259 252 245 242 238 231 230 233 235 245 254 258 254 243 234 231 224 215 209 210 216 220 219 217 218 221 222 219 216 220 223 216 206 205 209
205 203 175 206 235 241 233 230 229 227 233 239 237 233 232 233 236 237 238 241 245 254 261 262 265 269 274 287 290 285 287 292 294 295 296 298 300 300 299 299 299 297 295 292 291 289 285 280 272 263 259 258 253 249 248 243 229 226 229 228 234 245 252 252 244 233 227 223 217 209 207 213 218 220 220 221 225 224 219 218 223 224 218 215 218 218
206 206 190 207 230 243 237 232 234 235 236 239 236 233 233 235 238 238 239 241 241 248 258 259 262 272 282 302 311 303 302 301 298 298 297 297 299 303 309 313 312 310 310 308 305 301 295 288 281 273 268 263 254 246 246 240 227 223 227 226 227 232 240 243 239 231 224 219 216 211 209 210 214 220 224 223 223 220 217 219 222 220 219 224 227 219
221 214 211 213 228 244 239 229 238 240 237 241 238 229 230 233 236 240 244 246 245 245 250 256 264 275 287 306 322 317 312 304 297 294 294 298 307 317 322 322 321 321 320 317 313 308 301 295 287 280 275 271 262 248 238 231 228 231 231 228 227 228 231 233 231 228 224 220 217 216 216 214 215 220 224 222 220 217 216 218 219 220 222 225 224 217
258 225 221 218 224 242 232 206 227 239 244 258 256 228 227 235 239 246 250 250 249 250 253 260 267 279 300 322 329 323 313 300 292 286 289 315 351 345 334 332 331 329 326 323 319 311 304 299 291 282 276 274 268 254 240 234 236 240 236 231 230 230 229 229 229 228 227 227 225 224 224 223 222 223 225 223 219 217 217 218 219 221 223 221 221 222
252 231 212 210 218 227 208 202 225 243 241 236 231 213 222 234 233 240 250 250 250 256 262 266 271 287 321 325 319 323 314 301 292 279 276 29 20 358 348 344 341 336 329 328 326 318 308 301 291 279 271 268 263 253 245 241 238 238 235 233 233 234 233 232 231 231 231 233 234 234 233 231 228 228 228 224 221 219 219 218 218 218 218 219 222 225
245 257 214 216 224 223 215 218 235 251 234 199 198 192 204 234 227 228 246 245 216 190 249 256 255 278 316 314 323 328 315 298 283 253 152 35 7 357 351 345 345 343 338 335 333 326 314 301 289 276 266 263 256 246 242 239 233 229 229 231 235 238 238 235 233 233 234 235 237 239 240 239 235 234 231 226 224 224 222 221 219 216 215 218 222 224
216 231 214 218 221 212 226 237 242 251 251 234 194 149 121 70 224 209 249 244 178 155 192 230 238 265 287 297 318 324 311 293 272 235 41 6 352 347 342 338 344 349 349 347 340 332 322 307 290 278 269 261 251 240 236 233 227 224 226 230 235 239 239 236 234 234 234 236 238 239 241 241 239 238 235 230 228 227 227 227 224 217 217 221 224 227
198 206 209 226 228 213 226 242 240 249 259 212 126 111 105 121 159 184 245 248 176 149 154 207 244 278 293 301 314 315 300 285 273 278 352 351 340 338 337 335 339 346 353 356 348 338 335 324 298 279 271 261 249 239 232 229 225 224 228 232 236 239 241 240 237 235 235 237 237 238 241 242 241 241 239 236 232 229 228 229 225 219 221 225 226 229
185 192 202 220 231 226 229 240 243 255 260 157 135 129 128 131 150 199 247 249 146 141 161 240 262 290 298 300 306 300 285 284 289 306 329 331 326 332 336 333 334 339 348 355 352 347 351 350 334 309 286 265 250 238 226 222 222 224 229 234 238 240 241 240 237 233 233 236 236 237 239 241 241 242 241 237 234 230 228 228 224 220 221 224 224 226
180 190 201 217 229 229 228 236 246 252 191 147 151 150 143 141 182 231 254 171 134 166 209 252 283 295 294 290 288 283 284 290 295 301 310 314 316 326 332 331 330 331 338 349 352 353 2 11 8 351 325 285 248 230 218 214 218 222 224 227 231 231 226 222 219 218 221 227 231 236 240 241 241 242 241 237 232 230 229 226 224 222 222 221 222 225
188 194 205 217 226 227 229 237 243 245 176 146 150 155 165 192 236 250 207 127 162 220 236 246 275 289 288 284 280 279 284 290 292 296 302 307 311 318 327 333 334 331 331 338 345 351 358 7 15 11 357 345 311 219 210 205 204 207 213 219 221 216 211 211 214 219 226 233 238 242 245 245 244 242 240 237 231 228 228 226 224 223 223 223 225 228
193 197 209 213 217 222 228 228 234 245 162 151 153 160 186 216 269 341 162 189 215 245 247 241 259 275 281 283 281 280 283 286 289 294 299 303 308 315 324 332 337 336 333 330 331 339 348 353 359 4 354 342 337 308 238 230 221 221 228 229 218 212 214 221 228 239 249 257 259 256 254 251 249 245 240 235 230 227 227 225 222 221 223 226 230 231
190 196 216 215 206 210 219 221 229 247 152 168 179 202 212 225 297 355 246 248 230 230 248 257 262 269 279 285 284 283 285 285 287 293 296 299 306 313 318 325 333 335 334 331 323 322 334 345 349 352 350 337 318 295 266 254 252 250 244 228 212 213 223 233 243 251 258 262 263 261 258 255 251 247 240 234 230 226 223 222 221 221 225 229 231 230
187 181 232 223 207 218 237 238 152 97 144 173 192 246 229 224 235 215 241 263 257 252 265 272 274 279 285 288 288 287 287 287 288 292 295 297 302 309 314 318 326 331 334 334 320 308 316 333 338 339 344 344 332 311 286 262 251 251 247 230 218 221 232 242 249 254 260 264 263 260 257 251 245 242 236 231 228 224 220 220 221 223 227 230 228 223
146 73 333 235 220 236 257 257 235 200 195 198 215 249 244 242 249 238 240 253 260 267 272 271 277 286 288 289 291 289 287 289 290 289 290 293 296 302 308 311 316 323 330 335 325 302 293 309 327 330 329 334 338 333 318 294 263 249 242 230 223 227 236 243 246 250 260 268 264 257 251 244 237 234 230 226 226 223 220 221 224 226 229 230 227 219
168 174 216 237 229 225 238 241 241 241 229 223 240 248 238 240 251 248 244 251 259 267 271 272 279 284 284 286 287 287 289 292 291 288 288 290 292 297 303 306 310 316 325 335 336 316 289 286 301 315 318 318 323 330 334 331 311 274 243 226 222 229 240 243 240 242 256 267 260 250 243 233 226 225 223 222 222 221 219 219 223 226 227 226 222 215
173 185 203 228 232 231 234 238 250 253 241 240 253 249 238 245 253 249 248 255 261 267 272 274 276 279 282 283 283 284 287 289 288 288 288 288 289 292 296 300 303 307 315 326 336 335 311 284 279 289 302 306 307 312 322 332 328 303 261 236 226 228 240 245 241 239 247 255 252 245 239 231 224 219 218 219 219 218 217 216 218 223 224 219 215 212
125 164 197 227 237 246 255 254 256 260 256 251 251 247 244 250 254 254 259 263 264 269 274 275 276 278 281 283 283 283 283 283 285 287 285 285 287 287 290 295 296 297 306 315 322 331 331 308 283 280 289 298 299 298 303 313 322 315 288 258 242 236 239 243 240 238 241 247 248 244 236 232 226 218 215 216 216 217 219 219 222 226 224 217 213 214
145 184 205 224 236 242 249 249 252 261 262 257 255 253 253 256 261 266 270 268 268 273 276 277 280 282 281 281 281 280 279 280 282 284 283 282 283 283 285 289 289 288 295 305 311 315 322 327 312 288 282 289 295 294 291 295 305 313 305 282 261 249 245 244 243 241 241 243 245 244 240 233 227 221 219 221 222 223 225 227 226 224 221 217 215 216
202 213 216 230 244 250 256 261 266 272 275 275 275 272 268 269 272 273 272 273 275 278 278 280 283 285 283 281 279 278 278 278 278 280 280 280 281 282 283 284 285 287 288 293 302 308 310 315 319 304 288 287 291 291 285 282 287 299 304 293 276 261 253 250 250 247 244 241 241 245 245 236 228 226 225 227 229 228 228 230 226 219 216 219 221 224